Regional Weather Roundup
Issued by NWS

Home | Current Version | Previous Version | Graphics & Text | Print | Product List | Glossary Off
Versions: 1 2 3 4 5 6 7 8 9 10 11 12 13 14 15 16 17 18 19 20 21 22 23 24 25 26 27 28 29 30 31 32 33 34 35 36 37 38 39 40 41 42 43 44 45 46 47 48 49 50

000
ASUS43 KTOP 172259
RWRKS

WEATHER ROUNDUP FOR KANSAS
NATIONAL WEATHER SERVICE GOODLAND KS
500 PM CST FRI NOV 17 2017

NOTE:  "FAIR" INDICATES FEW OR NO CLOUDS BELOW 12,000 FEET WITH NO
SIGNIFICANT WEATHER AND/OR OBSTRUCTIONS TO VISIBILITY.

KSZ001>006-013>018-027>032-041>047-180000-
NORTHWEST KANSAS

CITY           SKY/WX    TMP DP  RH WIND       PRES   REMARKS
GOODLAND       CLEAR     60  32  34 NE9       29.53R
HAYS           CLEAR     68  39  34 N10       29.48R
HILL CITY      CLEAR     64  42  44 NE12      29.51R
RUSSELL        CLEAR     70  45  40 N13       29.45R
$$

KSZ061>065-074>080-084>089-180000-
SOUTHWEST KANSAS

CITY           SKY/WX    TMP DP  RH WIND       PRES   REMARKS
DODGE CITY     CLOUDY    74  37  26 SW12      29.51F
GARDEN CITY    CLOUDY    71  36  27 SW7       29.50F
GREAT BEND     CLOUDY    69  40  34 SW8       29.47F
LIBERAL        CLOUDY    78  35  21 SW17      29.55F
$$

KSZ066>073-081>083-090>101-180000-
SOUTHEAST KANSAS

CITY           SKY/WX    TMP DP  RH WIND       PRES   REMARKS
CHANUTE        CLOUDY    74  56  53 S15       29.51F
COFFEYVILLE    PTCLDY    77  56  48 SW14      29.53R
HUTCHINSON     CLOUDY    69  47  45 S12       29.47F
MEDICINE LODGE   N/A     73  47  39 SE5       29.50S
NEWTON         CLOUDY    70  50  49 S18       29.49F
PARSONS        CLOUDY    75  57  53 SW9       29.54S
WICHITA INTL   CLOUDY    71  51  49 S13       29.49F
WICHITA JABRA  CLOUDY    71  50  47 S13       29.49F
WICHITA MCCONL CLOUDY    71  49  46 SW13      29.50F
WINFIELD       CLOUDY    73  53  49 S10       29.52F
$$

KSZ007>012-019>026-033>040-048>060-102>105-180000-
NORTHEAST KANSAS

CITY           SKY/WX    TMP DP  RH WIND       PRES   REMARKS
CONCORDIA      CLEAR     64  46  52 NW8       29.47R
EMPORIA        CLOUDY    70  52  52 SW12      29.47F
LAWRENCE       CLOUDY    67  59  75 SE7       29.46F
MANHATTAN      CLEAR     67  51  56 SW7       29.44F
OLATHE IND     CLEAR     65  60  84 S8        29.49F
OLATHE EXE     CLOUDY    65  59  81 S9        29.49F
SALINA         CLOUDY    64  48  56 S7        29.46R
TOPEKA BILLARD CLOUDY    70  58  65 S3        29.46S
TOPEKA FORBES  CLOUDY    68  57  68 S6        29.46F
$$



USA.gov is the U.S. government's official web portal to all federal, state and local government web resources and services.